sat.trackr.live / text

‹ back to catalog

YAOGAN-30 02A

NORAD 42945 · 2017-058A

PAYLOAD ACTIVE UNKNOWN

§ Identity

Operator
Country
PRC
Launch date
2017-09-29
Launch site
XICLF
Launch vehicle
Mass (kg)
RCS (m²)

External: N2YO · Heavens-Above · Gunter

§ Orbital elements

Epoch: 2026-09-20T04:06:04.374144Z

Period
95.77 min
Inclination
34.9967°
Eccentricity
0.0003072
Mean motion
15.03554972 rev/d
Perigee alt
553.8 km
Apogee alt
558.1 km
Semi-major
6,934.1 km
B*
1.4036e-4
RAAN
169.7698°
Arg perigee
262.6924°
Mean anomaly
97.3435°
Rev number
49,019

§ Raw data

YAOGAN-30 02A1 42945U 17058A   26263.17088396  .00001927  00000+0  14036-3 0  99912 42945  34.9967 169.7698 0003072 262.6924  97.3435 15.03554972490198

JSON: /api/v1/satellites/42945 · /tle

For live sub-satellite position, see the globe view (requires WebGL).

§ Visibility from observer

Set your observer location to see the next 7 days of passes ≥ 10°. The values pass through the URL so the page stays shareable.

No JS? Fill the form by hand. The geolocation button needs JavaScript.